Total_Precipitation_Accumulation
0.00 0.00 0.01 0.01 0.01 0.02 0.04 0.09 0.16 0.18 0.18 0.24 0.41 0.66 0.78 0.78 0.84 0.99 1.10 1.30 1.34 1.38 1.65 2.11 2.74 3.40 4.21 5.31 5.96 6.05 5.70 4.98 4.43 3.93 3.63 3.30 3.01 2.75 2.31 1.92 1.68 1.51 1.41 1.32
0.01 0.02 0.02 0.02 0.02 0.03 0.05 0.09 0.17 0.17 0.14 0.16 0.38 0.72 0.82 0.88 0.95 0.95 1.01 1.10 1.02 1.17 1.51 2.11 2.89 3.70 4.32 4.87 5.23 5.27 4.84 4.07 3.57 3.22 3.12 2.83 2.58 2.23 2.01 1.76 1.66 1.42 1.32 1.25
0.02 0.03 0.02 0.01 0.02 0.04 0.08 0.09 0.15 0.18 0.15 0.17 0.38 0.86 1.03 0.98 0.97 0.97 0.87 0.85 0.94 1.14 1.69 2.47 3.30 4.04 4.33 4.36 4.15 3.84 3.60 3.19 3.05 2.94 2.74 2.49 2.39 2.10 1.90 1.64 1.48 1.26 1.11 1.04
0.02 0.03 0.02 0.03 0.04 0.06 0.09 0.07 0.05 0.07 0.13 0.34 0.47 0.94 1.09 1.11 1.07 0.95 0.91 0.93 1.04 1.30 1.84 2.56 3.12 3.35 3.48 3.41 3.12 2.90 2.78 2.67 2.59 2.49 2.33 2.01 1.78 1.71 1.57 1.45 1.40 1.29 1.14 1.07
0.02 0.03 0.04 0.04 0.04 0.05 0.06 0.04 0.04 0.08 0.19 0.35 0.49 0.79 1.14 1.13 1.20 0.81 0.69 0.80 0.89 1.10 1.40 1.64 1.86 2.02 2.14 2.17 2.32 2.35 2.40 2.50 2.38 2.32 2.24 2.08 1.80 1.74 1.72 1.66 1.67 1.55 1.38 1.18
0.03 0.03 0.03 0.03 0.03 0.04 0.04 0.06 0.13 0.22 0.37 0.71 0.70 0.83 1.17 1.16 0.99 0.62 0.44 0.49 0.69 0.80 0.87 0.97 1.08 1.20 1.43 1.48 1.67 1.82 1.88 2.01 2.13 2.11 1.98 1.92 1.83 1.83 1.83 1.72 1.55 1.36 1.26 1.17
0.09 0.07 0.06 0.06 0.06 0.06 0.05 0.09 0.31 0.64 0.99 1.05 0.62 0.73 1.12 1.04 0.72 0.46 0.37 0.33 0.38 0.54 0.69 0.84 0.97 1.08 1.27 1.20 1.25 1.43 1.48 1.51 1.63 1.64 1.60 1.66 1.76 1.78 1.62 1.50 1.40 1.25 1.05 1.01
0.15 0.14 0.09 0.07 0.08 0.07 0.06 0.07 0.18 0.35 0.46 0.62 0.65 1.13 1.36 0.80 0.50 0.35 0.31 0.27 0.28 0.43 0.60 0.71 0.70 0.78 0.90 0.86 0.93 1.05 1.19 1.25 1.29 1.36 1.40 1.40 1.50 1.47 1.40 1.45 1.36 1.21 1.01 0.93
0.06 0.08 0.08 0.07 0.08 0.08 0.06 0.05 0.07 0.10 0.17 0.44 0.81 1.16 1.13 0.68 0.51 0.34 0.29 0.26 0.27 0.33 0.48 0.53 0.46 0.47 0.59 0.69 0.75 0.80 0.98 1.10 1.11 1.22 1.28 1.23 1.29 1.34 1.39 1.41 1.32 1.15 1.14 1.04
0.04 0.03 0.05 0.05 0.07 0.08 0.07 0.07 0.08 0.10 0.19 0.40 0.73 1.17 1.38 1.00 0.57 0.39 0.38 0.37 0.35 0.32 0.37 0.39 0.37 0.35 0.43 0.55 0.71 0.80 0.91 1.01 1.04 1.13 1.12 0.98 1.13 1.24 1.36 1.34 1.27 1.21 1.24 1.16
0.03 0.02 0.05 0.06 0.07 0.09 0.09 0.09 0.10 0.11 0.12 0.23 0.56 0.84 0.73 0.72 0.55 0.53 0.50 0.44 0.40 0.35 0.37 0.36 0.32 0.30 0.32 0.41 0.60 0.73 0.85 0.94 0.97 1.03 1.11 1.16 1.15 1.07 1.18 1.24 1.24 1.28 1.31 1.23
0.03 0.03 0.04 0.08 0.10 0.11 0.11 0.11 0.12 0.14 0.12 0.13 0.27 0.44 0.44 0.62 0.61 0.59 0.58 0.53 0.49 0.35 0.32 0.33 0.33 0.35 0.35 0.36 0.47 0.59 0.71 0.83 0.90 0.98 1.10 1.16 1.24 1.16 1.13 1.17 1.24 1.30 1.40 1.44
0.03 0.04 0.06 0.15 0.22 0.18 0.12 0.11 0.12 0.12 0.10 0.11 0.27 0.44 0.43 0.49 0.55 0.50 0.60 0.58 0.48 0.44 0.41 0.38 0.39 0.42 0.46 0.44 0.45 0.54 0.67 0.82 0.93 1.03 1.08 1.17 1.24 1.18 1.15 1.29 1.41 1.43 1.55 1.65
0.04 0.04 0.06 0.15 0.25 0.28 0.20 0.13 0.12 0.10 0.08 0.09 0.17 0.38 0.44 0.49 0.47 0.55 0.63 0.63 0.58 0.53 0.45 0.37 0.35 0.37 0.42 0.54 0.59 0.67 0.89 0.88 0.86 1.00 1.12 1.20 1.26 1.26 1.27 1.38 1.47 1.49 1.56 1.70
0.04 0.04 0.04 0.05 0.09 0.15 0.19 0.17 0.13 0.09 0.07 0.09 0.16 0.32 0.41 0.52 0.57 0.59 0.61 0.57 0.50 0.46 0.42 0.35 0.33 0.34 0.43 0.56 0.59 0.67 0.81 0.99 1.02 1.17 1.33 1.39 1.49 1.54 1.56 1.64 1.65 1.62 1.63 1.68
0.07 0.06 0.04 0.04 0.07 0.11 0.13 0.16 0.11 0.09 0.07 0.07 0.16 0.35 0.43 0.45 0.51 0.59 0.58 0.58 0.55 0.47 0.42 0.44 0.47 0.46 0.49 0.55 0.63 0.70 0.75 0.92 1.11 1.35 1.63 1.67 1.76 1.81 1.89 2.04 2.12 2.04 2.00 2.07
0.13 0.10 0.08 0.07 0.10 0.11 0.15 0.15 0.12 0.14 0.13 0.14 0.22 0.33 0.38 0.44 0.53 0.73 0.75 0.69 0.68 0.62 0.58 0.61 0.68 0.65 0.64 0.64 0.69 0.77 0.84 0.98 1.20 1.45 1.70 1.90 2.02 2.09 2.18 2.28 2.29 2.23 2.30 2.43
0.20 0.19 0.16 0.12 0.16 0.22 0.19 0.19 0.17 0.19 0.22 0.27 0.35 0.37 0.48 0.67 0.79 0.93 0.98 0.86 0.82 0.73 0.67 0.69 0.79 0.85 0.81 0.80 0.89 1.01 1.14 1.30 1.50 1.71 1.89 2.04 2.09 2.12 2.18 2.25 2.19 2.20 2.31 2.36
0.21 0.25 0.26 0.23 0.25 0.24 0.26 0.30 0.30 0.34 0.47 0.48 0.56 0.62 0.71 0.79 0.80 0.87 0.82 0.71 0.67 0.64 0.72 0.77 0.85 0.94 0.98 0.99 1.09 1.19 1.26 1.38 1.58 1.76 1.85 1.87 1.98 2.08 2.14 2.18 2.22 2.22 2.19 2.08
0.31 0.31 0.40 0.36 0.38 0.40 0.43 0.46 0.42 0.49 0.90 0.92 0.88 0.84 0.80 0.83 1.03 1.00 0.79 0.71 0.70 0.67 0.70 0.82 0.83 0.88 0.95 1.04 1.06 1.14 1.24 1.42 1.65 1.82 1.85 1.84 1.94 2.02 2.09 2.14 2.18 2.11 2.02 1.96
0.50 0.54 0.51 0.49 0.53 0.49 0.48 0.43 0.42 0.74 1.06 1.03 1.02 1.05 0.97 1.03 1.09 1.03 0.89 0.87 0.80 0.73 0.70 0.75 0.86 0.93 0.96 1.04 1.08 1.14 1.26 1.40 1.52 1.60 1.67 1.78 1.93 2.03 2.06 2.09 2.06 1.99 1.90 1.91
0.60 0.65 0.65 0.66 0.81 0.85 0.62 0.52 0.73 0.98 0.87 1.02 1.14 1.14 1.11 1.04 0.95 0.96 0.94 0.94 0.88 0.80 0.83 0.86 0.93 1.09 1.15 1.18 1.18 1.24 1.25 1.31 1.41 1.41 1.47 1.51 1.60 1.74 1.79 1.85 1.79 1.79 1.74 1.69
0.77 0.77 0.80 0.91 1.03 0.86 0.73 0.75 0.82 0.87 0.90 0.96 1.09 1.15 1.11 1.12 1.07 0.93 0.88 0.86 0.97 1.04 1.05 1.02 1.01 1.08 1.13 1.21 1.28 1.33 1.29 1.25 1.26 1.28 1.35 1.41 1.42 1.55 1.65 1.67 1.61 1.59 1.55 1.49
0.95 0.78 0.87 1.12 1.19 1.05 0.95 0.91 0.85 0.82 0.86 0.91 1.06 1.17 1.23 1.19 1.04 0.95 0.87 0.80 0.78 0.83 0.87 0.95 0.97 1.01 1.14 1.11 1.14 1.21 1.24 1.23 1.28 1.33 1.33 1.36 1.40 1.48 1.67 1.72 1.58 1.47 1.42 1.37
1.00 1.03 1.07 1.26 1.31 1.14 1.04 0.97 1.02 0.99 0.93 0.92 1.00 1.08 1.09 1.02 0.99 0.95 0.85 0.77 0.74 0.70 0.68 0.72 0.77 0.80 0.86 0.87 0.89 0.93 0.97 1.04 1.10 1.09 1.05 1.03 1.10 1.24 1.43 1.53 1.48 1.33 1.29 1.34
0.91 1.10 1.24 1.36 1.23 1.26 1.28 1.16 1.13 1.20 1.21 1.15 1.12 1.11 1.03 0.92 0.87 0.81 0.69 0.63 0.61 0.59 0.57 0.61 0.63 0.64 0.67 0.72 0.80 0.89 1.03 1.14 1.12 1.03 0.97 0.96 0.97 1.07 1.26 1.46 1.53 1.39 1.18 1.20